Home   Weather   Victorville   Past weeks

Flag for USA Past Weather in Victorville, California, USA — Yesterday and Last 2 Weeks

61 °F

Passing clouds.

Feels Like: 61 °F
Forecast: 54 / 72 °F
Wind: No wind

Location: George Air Force Base / Victorvi

Current Time: Oct 28, 2016 at 7:12:32 AM

Latest Report: Oct 28, 2016 at 6:35 AM

Visibility: 10 mi

Pressure: 29.97 "Hg (27.17 "Hg at 830m altitude)

Humidity: 55%

Dew Point: 45 °F

Location of VictorvilleLocation

Past Weather in Victorville — Graph


Victorville Temperature Yesterday

Maximum temperature yesterday: 79 °F (at 1:55 PM)
Minimum temperature yesterday: 55 °F (at 3:15 AM)
Average temperature yesterday: 67 °F

High & Low Weather Summary for the Past Weeks

High88 °F (Oct 14, 1:15 PM)94% (Oct 16, 6:55 AM)30.23 "Hg (Oct 16, 6:55 AM)
Low41 °F (Oct 19, 6:55 AM)5% (Oct 22, 2:55 PM)29.90 "Hg (Oct 22, 3:35 PM)
Average64 °F41%30.05 "Hg
* Reported Oct 13 5:15 AM — Oct 28 5:55 AM, Victorville, Weather by CustomWeather, © 2016

Note: Actual official high and low records may vary slightly from our data, if they occured in-between our weather recording intervals... More about our weather records


Victorville Weather History for the Previous 24 Hours

Scroll right to see more
Time TempWeatherWind HumidityBarometerVisibility
5:55 AM
Fri, Oct 28
63 °FPassing clouds.No wind56%29.97 "Hg10 mi
5:35 AM63 °FPassing clouds.No wind56%29.97 "Hg7 mi
5:15 AM63 °FPassing clouds.No wind56%29.97 "Hg7 mi
4:55 AM63 °FPassing clouds.9 mph56%29.97 "Hg7 mi
4:35 AM63 °FClear.No wind52%29.95 "Hg10 mi
4:15 AM61 °FPassing clouds.No wind52%29.96 "Hg10 mi
3:55 AM63 °FPassing clouds.No wind49%29.97 "Hg10 mi
3:35 AM63 °FClear.5 mph49%29.97 "Hg10 mi
3:15 AM64 °FClear.8 mph49%29.95 "Hg10 mi
2:55 AM64 °FClear.No wind46%29.95 "Hg10 mi
2:35 AM64 °FClear.3 mph46%29.96 "Hg10 mi
2:15 AM63 °FClear.No wind49%29.95 "Hg10 mi
1:55 AM63 °FClear.No wind45%29.95 "Hg10 mi
1:35 AM63 °FClear.No wind45%29.95 "Hg10 mi
1:15 AM63 °FClear.No wind42%29.94 "Hg10 mi
12:55 AM66 °FClear.No wind37%29.94 "Hg10 mi
12:35 AM66 °FClear.No wind35%29.95 "Hg10 mi
12:15 AM64 °FClear.No wind40%29.95 "Hg10 mi
11:55 PM
Thu, Oct 27
66 °FClear.No wind37%29.96 "Hg10 mi
11:35 PM64 °FClear.No wind40%29.96 "Hg10 mi
11:15 PM66 °FClear.No wind37%29.96 "Hg10 mi
10:55 PM64 °FClear.No wind40%29.97 "Hg10 mi
10:35 PM66 °FClear.No wind35%29.96 "Hg10 mi
10:15 PM66 °FClear.No wind35%29.97 "Hg10 mi
9:55 PM66 °FClear.No wind35%29.98 "Hg10 mi
9:35 PM66 °FClear.No wind37%29.97 "Hg10 mi
9:15 PM70 °FClear.No wind33%29.97 "Hg10 mi
8:55 PM70 °FClear.No wind33%29.97 "Hg10 mi
8:35 PM70 °FClear.No wind33%29.97 "Hg10 mi
8:15 PM72 °FClear.No wind29%29.96 "Hg10 mi
7:55 PM72 °FClear.No wind27%29.96 "Hg10 mi
7:35 PM72 °FClear.No wind27%29.97 "Hg10 mi
6:55 PM73 °FClear.No wind27%29.97 "Hg10 mi
6:35 PM73 °FClear.No wind29%29.98 "Hg10 mi
6:15 PM73 °FClear.No wind29%29.97 "Hg10 mi
5:55 PM75 °FSunny.No wind25%29.99 "Hg10 mi
5:35 PM77 °FScattered clouds.No wind22%29.99 "Hg10 mi
5:15 PM77 °FScattered clouds.No wind22%29.99 "Hg10 mi
4:55 PM77 °FScattered clouds.No wind22%29.99 "Hg10 mi
4:35 PM79 °FScattered clouds.No wind21%29.99 "Hg10 mi
4:15 PM79 °FScattered clouds.No wind20%29.99 "Hg10 mi
3:55 PM79 °FScattered clouds.No wind21%29.99 "Hg10 mi
3:15 PM79 °FScattered clouds.No wind21%30.01 "Hg10 mi
2:55 PM79 °FScattered clouds.No wind23%30.01 "Hg10 mi
2:35 PM79 °FScattered clouds.No wind24%30.01 "Hg10 mi
2:15 PM79 °FScattered clouds.No wind24%30.02 "Hg10 mi
1:55 PM79 °FScattered clouds.No wind24%30.03 "Hg10 mi
1:35 PM77 °FScattered clouds.No wind26%30.03 "Hg10 mi
1:15 PM77 °FScattered clouds.No wind26%30.03 "Hg10 mi
12:55 PM77 °FScattered clouds.No wind28%30.04 "Hg10 mi
12:35 PM75 °FScattered clouds.No wind27%30.05 "Hg10 mi
12:15 PM75 °FScattered clouds.No wind31%30.06 "Hg10 mi
11:55 AM73 °FScattered clouds.No wind36%30.07 "Hg10 mi
11:35 AM73 °FScattered clouds.No wind33%30.08 "Hg10 mi
11:15 AM72 °FScattered clouds.No wind38%30.09 "Hg10 mi
10:55 AM70 °FScattered clouds.No wind40%30.10 "Hg10 mi
10:35 AM70 °FScattered clouds.No wind40%30.11 "Hg10 mi
10:15 AM70 °FScattered clouds.No wind43%30.11 "Hg10 mi
9:55 AM68 °FScattered clouds.7 mph46%30.10 "Hg10 mi
9:35 AM66 °FScattered clouds.No wind49%30.10 "Hg10 mi
9:15 AM64 °FScattered clouds.No wind56%30.11 "Hg10 mi
8:55 AM63 °FScattered clouds.No wind59%30.11 "Hg10 mi
8:35 AM61 °FScattered clouds.No wind63%30.11 "Hg10 mi
8:15 AM57 °FScattered clouds.No wind72%30.10 "Hg7 mi
7:55 AM55 °FScattered clouds.No wind72%30.09 "Hg10 mi
7:35 AM55 °FSunny.No wind72%30.08 "Hg10 mi
7:15 AM55 °FSunny.No wind72%30.07 "Hg10 mi
Weather by CustomWeather, © 2016

See weather overviewHow to use our weather pages